Météo par heure à Aachen

Ce jour, 6 Décembre, Dimanche

Heure Température Précipitation Vent Pression Humidité
00:00 +2°C° 0 mm 1 m/s 734 mmHg 90%
01:00 +2°C° 0 mm 1 m/s 734 mmHg 90%
02:00 +2°C° 0 mm 1 m/s 734 mmHg 90%
03:00 +2°C° 0 mm 1 m/s 734 mmHg 90%
04:00 +2°C° 0 mm 1 m/s 734 mmHg 90%
05:00 +2°C° 0 mm 1 m/s 734 mmHg 89%
06:00 +2°C° 0 mm 1 m/s 734 mmHg 89%
07:00 +3°C° 0 mm 1 m/s 734 mmHg 88%
08:00 +3°C° 0 mm 1 m/s 735 mmHg 86%
09:00 +4°C° 0 mm 1 m/s 735 mmHg 84%
10:00 +4°C° 0 mm 1 m/s 735 mmHg 81%
11:00 +5°C° 0 mm 1 m/s 735 mmHg 78%
12:00 +5°C° 0 mm 0 m/s 735 mmHg 75%
13:00 +6°C° 0 mm 1 m/s 735 mmHg 78%
14:00 +5°C° 0 mm 1 m/s 735 mmHg 82%
15:00 +4°C° 0 mm 1 m/s 735 mmHg 86%
16:00 +4°C° 0 mm 1 m/s 734 mmHg 89%
17:00 +3°C° 0 mm 1 m/s 734 mmHg 92%
18:00 +3°C° 0 mm 1 m/s 734 mmHg 94%
19:00 +2°C° 0 mm 2 m/s 734 mmHg 95%
20:00 +2°C° 0 mm 2 m/s 734 mmHg 95%
21:00 +2°C° 0 mm 2 m/s 733 mmHg 95%
22:00 +2°C° 0.6 mm 2 m/s 733 mmHg 95%
23:00 +1°C° 0.6 mm 3 m/s 733 mmHg 96%

Demain, 7 Décembre, Lundi

Heure Température Précipitation Vent Pression Humidité
00:00 +1°C° 0.6 mm 3 m/s 732 mmHg 96%
01:00 +1°C° 1.5 mm 3 m/s 732 mmHg 97%
02:00 0°C° 1.5 mm 4 m/s 731 mmHg 97%
03:00 0°C° 1.5 mm 4 m/s 730 mmHg 97%
04:00 0°C° 2.1 mm 5 m/s 730 mmHg 97%
05:00 +1°C° 2.1 mm 5 m/s 730 mmHg 97%
06:00 +1°C° 2.1 mm 5 m/s 730 mmHg 97%
07:00 -1°C° 1.9 mm 6 m/s 731 mmHg 97%
08:00 -1°C° 1.9 mm 6 m/s 731 mmHg 97%
09:00 -1°C° 1.9 mm 6 m/s 731 mmHg 96%
10:00 -1°C° 0.8 mm 6 m/s 732 mmHg 96%
11:00 -1°C° 0.8 mm 6 m/s 732 mmHg 96%
12:00 +1°C° 0.8 mm 5 m/s 733 mmHg 96%
13:00 +1°C° 0.4 mm 5 m/s 733 mmHg 94%
14:00 +1°C° 0.4 mm 4 m/s 733 mmHg 92%
15:00 +2°C° 0.4 mm 3 m/s 734 mmHg 89%
16:00 +2°C° 0 mm 3 m/s 734 mmHg 90%
17:00 +1°C° 0 mm 3 m/s 735 mmHg 90%
18:00 +2°C° 0 mm 2 m/s 735 mmHg 90%
19:00 +2°C° 0 mm 2 m/s 736 mmHg 90%
20:00 +2°C° 0 mm 2 m/s 736 mmHg 90%
21:00 +2°C° 0 mm 2 m/s 736 mmHg 90%
22:00 +1°C° 0 mm 2 m/s 736 mmHg 91%
23:00 +1°C° 0 mm 2 m/s 737 mmHg 91%

Après-demain, 8 Décembre, Mardi

Heure Température Précipitation Vent Pression Humidité
00:00 +1°C° 0 mm 2 m/s 737 mmHg 92%
01:00 +2°C° 0 mm 1 m/s 737 mmHg 92%
02:00 +2°C° 0 mm 1 m/s 737 mmHg 92%
03:00 +2°C° 0 mm 1 m/s 737 mmHg 91%
04:00 +1°C° 0 mm 1 m/s 738 mmHg 91%
05:00 -1°C° 0 mm 2 m/s 738 mmHg 91%
06:00 -1°C° 0 mm 2 m/s 738 mmHg 91%
07:00 -1°C° 0 mm 2 m/s 738 mmHg 90%
08:00 +2°C° 0 mm 1 m/s 739 mmHg 89%
09:00 +2°C° 0 mm 1 m/s 739 mmHg 88%
10:00 +3°C° 0 mm 1 m/s 739 mmHg 85%
11:00 +4°C° 0 mm 1 m/s 739 mmHg 83%
12:00 +5°C° 0 mm 1 m/s 739 mmHg 80%
13:00 +4°C° 0 mm 1 m/s 739 mmHg 83%
14:00 +3°C° 0 mm 0 m/s 739 mmHg 86%
15:00 +2°C° 0 mm 0 m/s 740 mmHg 88%
16:00 +2°C° 0 mm 0 m/s 740 mmHg 88%
17:00 +2°C° 0 mm 0 m/s 741 mmHg 88%
18:00 +1°C° 0 mm 0 m/s 741 mmHg 88%
19:00 +2°C° 0 mm 1 m/s 741 mmHg 89%
20:00 +1°C° 0 mm 1 m/s 742 mmHg 89%
21:00 +1°C° 0 mm 1 m/s 742 mmHg 90%
22:00 +1°C° 0 mm 1 m/s 742 mmHg 90%
23:00 0°C° 0 mm 1 m/s 742 mmHg 90%

9 Décembre, Mercredi

Heure Température Précipitation Vent Pression Humidité
00:00 0°C° 0 mm 1 m/s 742 mmHg 91%
01:00 0°C° 0 mm 1 m/s 743 mmHg 91%
02:00 0°C° 0 mm 1 m/s 743 mmHg 91%
03:00 -1°C° 0 mm 0 m/s 743 mmHg 91%
04:00 0°C° 0 mm 1 m/s 743 mmHg 91%
05:00 0°C° 0 mm 1 m/s 743 mmHg 92%
06:00 0°C° 0 mm 1 m/s 743 mmHg 92%
07:00 0°C° 0 mm 1 m/s 744 mmHg 91%
08:00 +1°C° 0 mm 1 m/s 744 mmHg 90%
09:00 +1°C° 0 mm 1 m/s 744 mmHg 89%
10:00 +2°C° 0 mm 1 m/s 744 mmHg 87%
11:00 +3°C° 0 mm 1 m/s 744 mmHg 85%
12:00 +4°C° 0 mm 1 m/s 743 mmHg 83%
13:00 +3°C° 0 mm 1 m/s 743 mmHg 85%
14:00 +3°C° 0 mm 1 m/s 743 mmHg 88%
15:00 +1°C° 0 mm 0 m/s 743 mmHg 90%
16:00 +1°C° 0 mm 0 m/s 743 mmHg 91%
17:00 0°C° 0 mm 0 m/s 743 mmHg 91%
18:00 +1°C° 0 mm 1 m/s 743 mmHg 92%
19:00 +1°C° 0 mm 1 m/s 743 mmHg 91%
20:00 0°C° 0 mm 1 m/s 743 mmHg 90%
21:00 0°C° 0 mm 1 m/s 743 mmHg 90%
22:00 0°C° 0 mm 1 m/s 743 mmHg 89%
23:00 0°C° 0 mm 1 m/s 743 mmHg 88%

10 Décembre, Jeudi

Heure Température Précipitation Vent Pression Humidité
00:00 0°C° 0 mm 1 m/s 743 mmHg 88%
01:00 0°C° 0 mm 1 m/s 743 mmHg 87%
02:00 0°C° 0 mm 1 m/s 743 mmHg 86%
03:00 0°C° 0 mm 1 m/s 743 mmHg 85%
04:00 0°C° 0 mm 1 m/s 743 mmHg 85%
05:00 0°C° 0 mm 1 m/s 743 mmHg 85%
06:00 0°C° 0 mm 1 m/s 743 mmHg 84%
07:00 0°C° 0 mm 1 m/s 743 mmHg 82%
08:00 +1°C° 0 mm 1 m/s 744 mmHg 80%
09:00 +1°C° 0 mm 1 m/s 744 mmHg 78%
10:00 +2°C° 0 mm 1 m/s 744 mmHg 76%
11:00 +3°C° 0 mm 1 m/s 744 mmHg 73%
12:00 +3°C° 0 mm 0 m/s 744 mmHg 70%
13:00 +4°C° 0 mm 1 m/s 744 mmHg 74%
14:00 +3°C° 0 mm 1 m/s 744 mmHg 78%
15:00 +2°C° 0 mm 1 m/s 744 mmHg 81%
16:00 +2°C° 0 mm 1 m/s 744 mmHg 82%
17:00 +2°C° 0 mm 1 m/s 744 mmHg 83%
18:00 -1°C° 0 mm 2 m/s 744 mmHg 85%
19:00 -1°C° 0 mm 2 m/s 744 mmHg 85%
20:00 -1°C° 0 mm 2 m/s 744 mmHg 85%
21:00 -1°C° 0 mm 2 m/s 744 mmHg 85%
22:00 -1°C° 0 mm 2 m/s 744 mmHg 85%
23:00 -1°C° 0 mm 2 m/s 743 mmHg 86%

11 Décembre, Vendredi

Heure Température Précipitation Vent Pression Humidité
00:00 -1°C° 0 mm 2 m/s 743 mmHg 86%
01:00 -1°C° 0 mm 3 m/s 743 mmHg 86%
02:00 -1°C° 0 mm 3 m/s 742 mmHg 86%
03:00 -1°C° 0 mm 3 m/s 742 mmHg 86%
04:00 -2°C° 0 mm 4 m/s 742 mmHg 85%
05:00 -2°C° 0 mm 4 m/s 742 mmHg 85%
06:00 -2°C° 0 mm 4 m/s 741 mmHg 85%
07:00 -1°C° 0 mm 5 m/s 741 mmHg 81%
08:00 -2°C° 0 mm 6 m/s 740 mmHg 78%
09:00 -1°C° 0 mm 6 m/s 740 mmHg 75%
10:00 0°C° 0 mm 7 m/s 739 mmHg 71%
11:00 +2°C° 0 mm 7 m/s 738 mmHg 67%
12:00 +2°C° 0 mm 7 m/s 737 mmHg 63%
13:00 +2°C° 1.4 mm 7 m/s 736 mmHg 72%
14:00 +2°C° 1.4 mm 7 m/s 736 mmHg 80%
15:00 0°C° 1.4 mm 7 m/s 735 mmHg 89%
16:00 +2°C° 0.9 mm 7 m/s 735 mmHg 89%
17:00 +2°C° 0.9 mm 6 m/s 735 mmHg 90%
18:00 +3°C° 0.9 mm 6 m/s 735 mmHg 91%
19:00 +3°C° 0.1 mm 6 m/s 735 mmHg 91%
20:00 +2°C° 0.1 mm 5 m/s 735 mmHg 92%
21:00 +2°C° 0.1 mm 5 m/s 735 mmHg 93%
22:00 +2°C° 0 mm 5 m/s 736 mmHg 94%
23:00 +3°C° 0 mm 4 m/s 736 mmHg 94%
Voir plus

Nous avons besoin de votre consentement

Meteoprog et ses fournisseurs de services peuvent stocker et accéder à des données personnelles telles que des cookies, des identifiants d'appareils ou d'autres technologies similaires sur votre appareil et traiter ces données pour personnaliser le contenu et les publicités, ainsi que pour fournir des fonctionnalités de médias sociaux et analyser le trafic.

  • Stocker et/ou accéder à des informations sur votre appareil

    Des cookies, des identifiants d'appareils ou d'autres informations peuvent être stockés ou accessibles sur votre appareil aux fins indiquées ci-dessus.

  • Annonces et contenus personnalisés, mesure des annonces et des contenus, connaissance de l'audience et développement de produits

    Les annonces et le contenu peuvent être personnalisés en fonction d'un profil. D'autres données peuvent être ajoutées pour mieux personnaliser les annonces et le contenu. Les performances des publicités et du contenu peuvent être mesurées. Il est possible d'obtenir des informations sur le public qui a vu les publicités et le contenu. Ces données peuvent être utilisées pour développer ou améliorer l'expérience de l'utilisateur, les systèmes et les logiciels.

En cliquant sur "J'accepte", vous autorisez l'utilisation de cookies, des identifiants d'appareils, des balises web ou d'autres technologies similaires. Vos paramètres peuvent être modifiés dans le navigateur de votre appareil.

Dans certains cas, des intérêts légitimes peuvent être invoqués plutôt qu'un consentement. Vous pouvez en savoir plus à ce sujet dans notre Politique de confidentialité et de cookies.